DateTimeUTC,F1_A11,F1_S11,BsB_S11,BsG_S11,BsR_S11,BbsB_S11,BbsG_S11,BbsR_S11,BaB_A11,BaG_A11,BaR_A11,Tu_S11,T_S11,Uu_S11,U_S11,P_S11,T1_A11
2021-12-07T05:00:00Z,00000200,21000000,,,,,,,-000.41,-000.32,-000.22,19.5,26.4,,00.0,0635.4,31.1
2021-12-07T05:01:00Z,00000200,21000000,,,,,,,-000.28,-000.54,-000.43,19.5,26.4,,00.0,0635.4,31.1
2021-12-07T05:02:00Z,00000200,21000000,,,,,,,-000.75,-000.36,-000.21,19.5,26.4,,00.0,0635.4,31.1
2021-12-07T05:03:00Z,00000200,61000000,,,,,,,0000.19,0000.46,0000.08,19.5,26.4,,00.0,0635.4,31.0
2021-12-07T05:04:00Z,00000200,41000000,-000.36,-000.04,-000.08,0000.19,-000.05,0000.22,0000.55,0000.37,0000.34,19.5,26.2,,00.0,0636.2,31.0
2021-12-07T05:05:00Z,00000200,01000000,0000.24,0000.06,0000.34,0000.06,0000.27,0000.12,0000.34,-000.07,0000.23,19.4,26.1,,00.0,0636.2,31.0
2021-12-07T05:06:00Z,00000200,01000000,0000.15,-000.05,-000.00,0000.16,0000.06,-000.24,0000.56,0000.64,0000.52,19.4,26.0,,00.0,0636.2,31.0
2021-12-07T05:07:00Z,00000200,01000000,0000.13,-000.36,0000.11,-000.18,0000.43,-000.10,0000.16,0000.04,0000.24,19.4,26.0,,00.0,0636.2,31.0
2021-12-07T05:08:00Z,00000200,01000000,-001.33,0000.16,-000.16,0000.26,0000.07,-000.27,0000.13,0000.50,0000.49,19.4,26.0,,00.0,0636.2,31.0
2021-12-07T05:09:00Z,00000200,01000000,0000.18,-000.04,-000.12,0000.52,0000.29,0000.04,0000.66,0000.18,-000.23,19.5,26.0,,00.0,0636.2,31.0
2021-12-07T05:10:00Z,00000200,01000000,-000.38,0000.29,-000.13,0000.30,-000.04,0000.31,0000.04,0000.40,0000.22,19.5,26.0,,00.0,0636.2,31.0
2021-12-07T05:11:00Z,00000200,01000000,0000.30,-000.11,-000.06,-000.00,0000.08,-000.12,-000.04,-000.03,0000.06,19.6,26.0,,00.0,0636.2,31.1
2021-12-07T05:12:00Z,00000200,01000000,-000.31,0000.06,-000.13,0000.15,0000.24,-000.20,-000.06,0000.18,0000.06,19.7,26.1,,00.0,0636.2,31.1
2021-12-07T05:13:00Z,00000200,01000000,-000.25,-000.24,0000.23,-000.14,-000.16,0000.10,0000.35,-000.01,0000.04,19.7,26.1,,00.0,0636.2,31.1
2021-12-07T05:14:00Z,00000200,01000000,0000.30,-000.00,-000.43,0000.28,0000.04,-000.08,0000.05,-000.04,-000.12,19.7,26.1,,00.0,0636.2,31.1
2021-12-07T05:15:00Z,00000200,01000000,0000.48,0000.15,-000.33,0000.68,0000.03,0000.10,-000.17,0000.26,0000.53,19.8,26.1,,00.0,0636.2,31.1
2021-12-07T05:16:00Z,00000200,01000000,-000.07,-000.38,0000.04,0000.49,-000.09,0000.32,0000.31,0000.18,-000.61,19.8,26.2,,00.0,0636.2,31.1
2021-12-07T05:17:00Z,00000200,01000000,0000.08,-000.11,-000.11,0000.46,0000.25,0000.03,0000.29,0000.16,0000.41,19.7,26.2,,00.0,0636.2,31.1
2021-12-07T05:18:00Z,00000200,01000000,0000.83,-000.35,-000.11,0000.65,0000.07,0000.04,-000.31,-000.32,-000.42,19.7,26.1,,00.0,0636.2,31.1
2021-12-07T05:19:00Z,00000200,01000000,0000.13,-000.07,0000.19,0000.55,0000.06,0000.30,0000.09,0000.17,0000.55,19.6,26.1,,00.0,0636.2,31.0
2021-12-07T05:20:00Z,00000200,01000000,0000.24,0000.16,0000.13,0000.37,0000.19,0000.01,-000.45,-000.02,-000.13,19.5,26.1,,00.0,0636.2,31.1
2021-12-07T05:21:00Z,00000200,01000000,0000.37,-000.10,-000.11,0000.75,-000.04,-000.03,0000.36,-000.04,-000.22,19.5,26.0,,00.0,0636.2,31.0
2021-12-07T05:22:00Z,00000200,01000000,-000.06,-000.12,-000.15,0000.52,-000.33,-000.10,0000.32,0000.02,0000.59,19.5,26.0,,00.0,0636.2,31.0
2021-12-07T05:23:00Z,00000200,01000000,0000.44,0000.11,-000.00,-000.38,0000.04,-000.02,0000.06,0000.07,-000.27,19.5,26.0,,00.0,0636.2,31.0
2021-12-07T05:24:00Z,00000200,01000000,-000.12,0000.07,0000.01,0000.65,0000.25,0000.28,-000.01,0000.03,0000.15,19.6,26.0,,00.0,0636.2,31.0
2021-12-07T05:25:00Z,00000200,01000000,-000.43,0000.22,0000.08,0000.09,-000.34,0000.23,0000.11,0000.13,-000.03,19.6,26.0,,00.0,0636.2,31.1
2021-12-07T05:26:00Z,00000200,01000000,-000.04,0000.04,0000.12,0000.86,-000.02,0000.42,-000.05,-000.07,-000.16,19.7,26.1,,00.0,0636.2,31.1
2021-12-07T05:27:00Z,00000200,01000000,0000.24,0000.17,-000.14,0000.32,0000.10,-000.15,-000.59,-000.53,-000.29,19.7,26.1,,00.0,0636.3,31.1
2021-12-07T05:28:00Z,00000200,01000000,-000.21,0000.04,-000.15,0000.16,-000.14,0000.39,-000.89,-000.75,-000.45,19.8,26.1,,00.0,0636.3,31.1
2021-12-07T05:29:00Z,00000200,01000000,-000.82,0000.20,0000.17,0000.62,0000.30,0000.18,-000.02,0000.30,0000.06,19.8,26.1,,00.0,0636.3,31.1
2021-12-07T05:30:00Z,00000200,01000000,0000.43,-000.08,0000.09,0000.43,0000.22,-000.14,0000.78,0000.15,0000.18,19.9,26.2,,00.0,0636.3,31.1
2021-12-07T05:31:00Z,00000200,01000000,0000.26,0000.10,-000.29,0000.08,-000.02,-000.18,-000.00,0000.07,0000.22,20.0,26.2,,00.0,0636.3,31.1
2021-12-07T05:32:00Z,00000200,01000000,0000.41,-000.14,0000.12,0000.17,0000.24,0000.37,0000.12,0000.06,-000.17,20.0,26.2,,00.0,0636.3,31.1
2021-12-07T05:33:00Z,00000200,01000000,0000.29,-000.05,-000.29,0000.15,0000.37,-000.24,0000.28,0000.70,0000.42,20.0,26.3,,00.0,0636.3,31.1
2021-12-07T05:34:00Z,00000200,01000000,-000.34,0000.16,-000.28,0000.34,0000.19,0000.04,0000.28,0000.29,0000.17,20.0,26.3,,00.0,0636.3,31.1
2021-12-07T05:35:00Z,00000200,01000000,0000.91,0000.59,-000.10,0000.29,0000.06,-000.20,0000.23,0000.01,0000.24,19.9,26.3,,00.0,0636.3,31.1
2021-12-07T05:36:00Z,00000200,01000000,0000.02,-000.38,-000.11,0000.01,0000.02,0000.12,0000.35,0000.17,-000.01,19.9,26.2,,00.0,0636.4,31.1
2021-12-07T05:37:00Z,00000200,01000000,0000.14,0000.04,-000.02,0000.41,-000.04,0000.28,-000.18,0000.20,-000.05,19.9,26.2,,00.0,0636.3,31.1
2021-12-07T05:38:00Z,00000200,01000000,0000.43,-000.20,-000.18,0000.48,0000.16,0000.31,0000.18,0000.12,0000.33,19.9,26.2,,00.0,0636.4,31.1
2021-12-07T05:39:00Z,00000200,01000000,0000.11,0000.25,-000.11,-000.21,0000.07,0000.56,0000.15,-000.18,-000.39,20.0,26.2,,00.0,0636.4,31.1
2021-12-07T05:40:00Z,00000200,01000000,0000.36,-000.10,-000.39,-000.26,0000.16,-000.17,0000.05,0000.39,0000.56,20.0,26.3,,00.0,0636.4,31.1
2021-12-07T05:41:00Z,00000200,01000000,0000.65,0000.41,-000.30,-000.27,0000.28,0000.16,0000.24,0000.05,-000.18,20.1,26.3,,00.0,0636.3,31.1
2021-12-07T05:42:00Z,00000200,01000000,0000.12,0000.10,-000.46,-000.14,-000.08,-000.02,-000.08,-000.36,-000.09,20.1,26.3,,00.0,0636.3,31.1
2021-12-07T05:43:00Z,00000200,01000000,0000.29,-000.11,0000.13,-000.21,-000.14,-000.07,-000.31,0000.05,0000.15,20.2,26.3,,00.0,0636.3,31.1
2021-12-07T05:44:00Z,00000200,01000000,0000.51,0000.29,-000.17,0000.14,0000.08,0000.21,0000.61,0000.00,0000.14,20.2,26.4,,00.0,0636.3,31.1
2021-12-07T05:45:00Z,00000200,01000000,0000.32,-000.04,-000.24,0000.33,-000.04,0000.16,-000.72,0000.39,-000.24,20.3,26.4,,00.0,0636.4,31.1
2021-12-07T05:46:00Z,00000200,01000000,-000.43,-000.15,0000.03,0000.50,0000.20,0000.06,0000.21,-000.38,0000.05,20.3,26.4,,00.0,0636.3,31.2
2021-12-07T05:47:00Z,00000200,01000000,-000.32,-000.03,0000.07,0000.37,-000.12,0000.23,0000.48,0000.35,0000.35,20.2,26.5,,00.0,0636.3,31.1
2021-12-07T05:48:00Z,00000200,01000000,-000.34,0000.01,0000.14,0000.58,0000.28,0000.23,-000.45,-000.06,-000.37,20.2,26.5,,00.0,0636.3,31.1
2021-12-07T05:49:00Z,00000200,01000000,0000.56,0000.30,0000.08,0000.62,-000.00,-000.24,0000.48,0000.36,0000.24,20.1,26.4,,00.0,0636.3,31.1
2021-12-07T05:50:00Z,00000200,01000000,0000.26,-000.06,-000.38,0000.52,0000.05,0000.27,-000.23,-000.41,0000.06,20.0,26.4,,00.0,0636.3,31.1
2021-12-07T05:51:00Z,00000200,01000000,0000.15,-000.10,-000.26,0000.26,-000.02,0000.31,-000.17,-000.24,-000.07,20.0,26.4,,00.0,0636.2,31.1
2021-12-07T05:52:00Z,00000200,01000000,-000.56,-000.00,-000.15,0000.06,-000.03,0000.08,0000.19,-000.25,0000.27,20.0,26.3,,00.0,0636.2,31.1
2021-12-07T05:53:00Z,00000200,01000000,-000.18,0000.15,0000.28,-000.28,0000.25,0000.07,-000.19,0000.23,-000.35,20.0,26.3,,00.0,0636.2,31.1
2021-12-07T05:54:00Z,00000200,01000000,0000.42,0000.00,-000.41,0000.54,0000.10,-000.06,0000.05,-000.07,-000.23,20.0,26.3,,00.0,0636.2,31.1
2021-12-07T05:55:00Z,00000200,01000000,0000.48,0000.15,-000.08,-000.22,-000.01,0000.32,-000.25,-000.16,0000.12,20.1,26.4,,00.0,0636.3,31.1
2021-12-07T05:56:00Z,00000200,01000000,0000.67,0000.45,0000.10,-000.84,0000.18,0000.16,-000.06,-000.36,-000.34,20.1,26.4,,00.0,0636.3,31.1
2021-12-07T05:57:00Z,00000200,41000000,,,,,,,-000.61,0000.02,-000.20,20.2,26.5,,00.0,0636.2,31.1
2021-12-07T05:58:00Z,00000200,61000000,,,,,,,-000.08,-000.10,-000.07,19.9,26.5,,00.0,0635.4,31.1
2021-12-07T05:59:00Z,00000200,21000000,,,,,,,0000.07,-000.08,0000.09,19.8,26.6,,00.0,0635.4,31.1
